Time,TemperatureF,DewpointF,PressureIn,WindDirection,WindDirectionDegrees,WindSpeedMPH,WindSpeedGustMPH,Humidity,HourlyPrecipIn,Conditions,Clouds,dailyrainin,SoftwareType,DateUTC
2013-06-16 00:02:00,55.0,53.0,-100.00,WSW,245,1.0,1.0,93,0.00,,,-99.99,,2013-06-16 04:02:00,
2013-06-16 00:12:00,54.0,53.0,-100.00,SSW,205,0.0,1.0,93,0.00,,,-99.99,,2013-06-16 04:12:00,
2013-06-16 00:23:00,54.0,53.0,-100.00,NNW,330,1.0,1.0,93,0.00,,,-99.99,,2013-06-16 04:23:00,
2013-06-16 00:34:00,54.0,53.0,-100.00,NW,320,0.0,1.0,94,0.00,,,-99.99,,2013-06-16 04:34:00,
2013-06-16 00:43:00,54.0,52.0,-100.00,SW,235,1.0,1.0,94,0.00,,,-99.99,,2013-06-16 04:43:00,
2013-06-16 00:53:00,54.0,53.0,-100.00,WSW,255,0.0,2.0,94,0.00,,,-99.99,,2013-06-16 04:53:00,
2013-06-16 01:02:00,54.0,52.0,-100.00,North,0,0.0,1.0,94,0.00,,,-99.99,,2013-06-16 05:02:00,
2013-06-16 01:12:00,53.0,52.0,-100.00,SW,235,1.0,1.0,94,0.00,,,-99.99,,2013-06-16 05:12:00,
2013-06-16 01:22:00,53.0,52.0,-100.00,West,260,0.0,1.0,94,0.00,,,-99.99,,2013-06-16 05:22:00,
2013-06-16 01:34:00,53.0,52.0,-100.00,SE,135,0.0,0.0,95,0.00,,,-99.99,,2013-06-16 05:34:00,
2013-06-16 01:43:00,53.0,52.0,-100.00,WSW,240,1.0,1.0,95,0.00,,,-99.99,,2013-06-16 05:43:00,
2013-06-16 01:52:00,53.0,51.0,-100.00,SSW,205,0.0,1.0,95,0.00,,,-99.99,,2013-06-16 05:52:00,
2013-06-16 02:01:00,52.0,51.0,-100.00,SE,135,0.0,1.0,95,0.00,,,-99.99,,2013-06-16 06:01:00,
2013-06-16 02:12:00,52.0,51.0,-100.00,West,265,1.0,1.0,95,0.00,,,-99.99,,2013-06-16 06:12:00,
2013-06-16 02:23:00,52.0,51.0,-100.00,SW,225,1.0,1.0,95,0.00,,,-99.99,,2013-06-16 06:23:00,
2013-06-16 02:33:00,52.0,51.0,-100.00,SE,145,1.0,1.0,95,0.00,,,-99.99,,2013-06-16 06:33:00,
2013-06-16 02:43:00,51.0,50.0,-100.00,SW,230,1.0,1.0,95,0.00,,,-99.99,,2013-06-16 06:43:00,
2013-06-16 02:52:00,51.0,50.0,-100.00,SSE,150,0.0,1.0,96,0.00,,,-99.99,,2013-06-16 06:52:00,
2013-06-16 03:01:00,51.0,50.0,-100.00,WSW,240,0.0,1.0,96,0.00,,,-99.99,,2013-06-16 07:01:00,
2013-06-16 03:12:00,51.0,50.0,-100.00,NNE,30,0.0,1.0,96,0.00,,,-99.99,,2013-06-16 07:12:00,
2013-06-16 03:23:00,51.0,50.0,-100.00,North,10,1.0,1.0,96,0.00,,,-99.99,,2013-06-16 07:23:00,
2013-06-16 03:33:00,51.0,50.0,-100.00,South,170,0.0,1.0,96,0.00,,,-99.99,,2013-06-16 07:33:00,
2013-06-16 03:43:00,51.0,50.0,-100.00,NW,315,0.0,1.0,96,0.00,,,-99.99,,2013-06-16 07:43:00,
2013-06-16 03:53:00,51.0,49.0,-100.00,West,260,0.0,0.0,96,0.00,,,-99.99,,2013-06-16 07:53:00,
2013-06-16 04:02:00,50.0,49.0,-100.00,SSW,195,0.0,1.0,96,0.00,,,-99.99,,2013-06-16 08:02:00,
2013-06-16 04:12:00,50.0,49.0,-100.00,SSW,210,0.0,1.0,96,0.00,,,-99.99,,2013-06-16 08:12:00,
2013-06-16 04:22:00,51.0,50.0,-100.00,SSW,205,0.0,1.0,96,0.00,,,-99.99,,2013-06-16 08:22:00,
2013-06-16 04:33:00,50.0,49.0,-100.00,SW,225,0.0,1.0,96,0.00,,,-99.99,,2013-06-16 08:33:00,
2013-06-16 04:43:00,50.0,49.0,-100.00,West,280,0.0,0.0,96,0.00,,,-99.99,,2013-06-16 08:43:00,
2013-06-16 04:54:00,51.0,50.0,-100.00,West,265,0.0,1.0,96,0.00,,,-99.99,,2013-06-16 08:54:00,
2013-06-16 05:02:00,51.0,50.0,-100.00,WSW,240,1.0,1.0,96,0.00,,,-99.99,,2013-06-16 09:02:00,
2013-06-16 05:11:00,51.0,50.0,-100.00,SE,130,0.0,1.0,97,0.00,,,-99.99,,2013-06-16 09:11:00,
2013-06-16 05:22:00,50.0,49.0,-100.00,SW,225,0.0,1.0,96,0.00,,,-99.99,,2013-06-16 09:22:00,
2013-06-16 05:33:00,50.0,49.0,-100.00,NNW,345,1.0,2.0,97,0.00,,,-99.99,,2013-06-16 09:33:00,
2013-06-16 05:43:00,50.0,49.0,-100.00,NW,310,1.0,1.0,97,0.00,,,-99.99,,2013-06-16 09:43:00,
2013-06-16 05:52:00,51.0,50.0,-100.00,North,350,1.0,1.0,97,0.00,,,-99.99,,2013-06-16 09:52:00,
2013-06-16 06:02:00,51.0,50.0,-100.00,NE,45,1.0,1.0,97,0.00,,,-99.99,,2013-06-16 10:02:00,
2013-06-16 06:22:00,53.0,52.0,-100.00,WSW,245,1.0,1.0,97,0.00,,,-99.99,,2013-06-16 10:22:00,
2013-06-16 06:33:00,53.0,52.0,-100.00,SW,225,0.0,1.0,97,0.00,,,-99.99,,2013-06-16 10:33:00,
2013-06-16 06:43:00,53.0,53.0,-100.00,WSW,250,0.0,1.0,97,0.00,,,-99.99,,2013-06-16 10:43:00,
2013-06-16 06:53:00,54.0,53.0,-100.00,North,355,1.0,2.0,97,0.00,,,-99.99,,2013-06-16 10:53:00,
2013-06-16 07:02:00,55.0,54.0,-100.00,WSW,240,1.0,1.0,97,0.00,,,-99.99,,2013-06-16 11:02:00,
2013-06-16 07:12:00,55.0,54.0,-100.00,SW,225,0.0,1.0,97,0.00,,,-99.99,,2013-06-16 11:12:00,
2013-06-16 07:22:00,57.0,56.0,-100.00,South,190,0.0,1.0,97,0.00,,,-99.99,,2013-06-16 11:22:00,
2013-06-16 07:34:00,58.0,57.0,-100.00,West,275,0.0,1.0,97,0.00,,,-99.99,,2013-06-16 11:34:00,
2013-06-16 07:43:00,58.0,56.0,-100.00,SW,230,1.0,2.0,96,0.00,,,-99.99,,2013-06-16 11:43:00,
2013-06-16 07:52:00,59.0,58.0,-100.00,South,180,0.0,1.0,95,0.00,,,-99.99,,2013-06-16 11:52:00,
2013-06-16 08:02:00,59.0,57.0,-100.00,SW,235,0.0,2.0,93,0.00,,,-99.99,,2013-06-16 12:02:00,
2013-06-16 08:12:00,60.0,57.0,-100.00,SW,215,0.0,2.0,91,0.00,,,-99.99,,2013-06-16 12:12:00,
2013-06-16 08:22:00,60.0,57.0,-100.00,SSE,160,1.0,2.0,88,0.00,,,-99.99,,2013-06-16 12:22:00,
2013-06-16 08:33:00,62.0,56.0,-100.00,SSW,205,1.0,3.0,81,0.00,,,-99.99,,2013-06-16 12:33:00,
2013-06-16 08:43:00,63.0,57.0,-100.00,South,175,0.0,2.0,79,0.00,,,-99.99,,2013-06-16 12:43:00,
2013-06-16 08:53:00,64.0,56.0,-100.00,SSW,205,0.0,3.0,75,0.00,,,-99.99,,2013-06-16 12:53:00,
2013-06-16 09:01:00,64.0,55.0,-100.00,SSW,195,1.0,3.0,71,0.00,,,-99.99,,2013-06-16 13:01:00,
2013-06-16 09:12:00,65.0,56.0,-100.00,SW,215,0.0,3.0,71,0.00,,,-99.99,,2013-06-16 13:12:00,
2013-06-16 09:22:00,65.0,53.0,-100.00,SSW,200,1.0,4.0,65,0.00,,,-99.99,,2013-06-16 13:22:00,
2013-06-16 09:34:00,67.0,53.0,-100.00,WSW,240,1.0,3.0,61,0.00,,,-99.99,,2013-06-16 13:34:00,
2013-06-16 09:43:00,68.0,52.0,-100.00,SW,220,1.0,6.0,56,0.00,,,-99.99,,2013-06-16 13:43:00,
2013-06-16 09:53:00,69.0,54.0,-100.00,SW,220,1.0,6.0,59,0.00,,,-99.99,,2013-06-16 13:53:00,
2013-06-16 10:02:00,69.0,52.0,-100.00,WSW,250,3.0,6.0,54,0.00,,,-99.99,,2013-06-16 14:02:00,
2013-06-16 10:12:00,70.0,52.0,-100.00,ESE,120,0.0,3.0,53,0.00,,,-99.99,,2013-06-16 14:12:00,
2013-06-16 10:22:00,71.0,52.0,-100.00,SW,235,2.0,4.0,51,0.00,,,-99.99,,2013-06-16 14:22:00,
2013-06-16 10:34:00,72.0,53.0,-100.00,WSW,255,2.0,5.0,52,0.00,,,-99.99,,2013-06-16 14:34:00,
2013-06-16 10:43:00,73.0,53.0,-100.00,SW,235,2.0,5.0,49,0.00,,,-99.99,,2013-06-16 14:43:00,
2013-06-16 10:52:00,73.0,54.0,-100.00,SSE,160,1.0,6.0,50,0.00,,,-99.99,,2013-06-16 14:52:00,
2013-06-16 11:02:00,76.0,54.0,-100.00,WSW,245,1.0,5.0,47,0.00,,,-99.99,,2013-06-16 15:02:00,
2013-06-16 11:12:00,75.0,52.0,-100.00,SW,230,2.0,5.0,44,0.00,,,-99.99,,2013-06-16 15:12:00,
2013-06-16 11:23:00,76.0,52.0,-100.00,SW,215,2.0,7.0,42,0.00,,,-99.99,,2013-06-16 15:23:00,
2013-06-16 11:34:00,74.0,51.0,-100.00,SSE,165,1.0,11.0,43,0.00,,,-99.99,,2013-06-16 15:34:00,
2013-06-16 11:43:00,74.0,53.0,-100.00,SW,225,2.0,6.0,47,0.00,,,-99.99,,2013-06-16 15:43:00,
2013-06-16 11:52:00,77.0,54.0,-100.00,SW,225,4.0,8.0,45,0.00,,,-99.99,,2013-06-16 15:52:00,
2013-06-16 12:02:00,75.0,52.0,-100.00,SW,235,4.0,11.0,44,0.00,,,-99.99,,2013-06-16 16:02:00,
2013-06-16 12:12:00,75.0,51.0,-100.00,WSW,240,4.0,10.0,43,0.00,,,-99.99,,2013-06-16 16:12:00,
2013-06-16 12:23:00,74.0,51.0,-100.00,SW,235,4.0,11.0,44,0.00,,,-99.99,,2013-06-16 16:23:00,
2013-06-16 12:33:00,74.0,52.0,-100.00,South,185,2.0,9.0,45,0.00,,,-99.99,,2013-06-16 16:33:00,
2013-06-16 12:43:00,74.0,53.0,-100.00,SSW,210,3.0,12.0,47,0.00,,,-99.99,,2013-06-16 16:43:00,
2013-06-16 12:53:00,74.0,51.0,-100.00,SW,230,4.0,10.0,43,0.00,,,-99.99,,2013-06-16 16:53:00,
2013-06-16 13:02:00,75.0,53.0,-100.00,West,275,4.0,11.0,46,0.00,,,-99.99,,2013-06-16 17:02:00,
2013-06-16 13:12:00,75.0,54.0,-100.00,SW,230,4.0,9.0,48,0.00,,,-99.99,,2013-06-16 17:12:00,
2013-06-16 13:22:00,74.0,52.0,-100.00,SW,230,4.0,10.0,45,0.00,,,-99.99,,2013-06-16 17:22:00,
2013-06-16 13:34:00,73.0,54.0,-100.00,SW,215,2.0,11.0,51,0.00,,,-99.99,,2013-06-16 17:34:00,
2013-06-16 13:43:00,73.0,54.0,-100.00,WSW,240,1.0,6.0,51,0.00,,,-99.99,,2013-06-16 17:43:00,
2013-06-16 13:53:00,73.0,58.0,-100.00,WSW,240,1.0,5.0,59,0.00,,,-99.99,,2013-06-16 17:53:00,
2013-06-16 14:02:00,73.0,55.0,-100.00,SSW,200,2.0,6.0,52,0.00,,,-99.99,,2013-06-16 18:02:00,
2013-06-16 14:12:00,73.0,57.0,-100.00,NE,45,1.0,7.0,57,0.00,,,-99.99,,2013-06-16 18:12:00,
2013-06-16 14:22:00,72.0,54.0,-100.00,SSW,205,3.0,8.0,53,0.00,,,-99.99,,2013-06-16 18:22:00,
2013-06-16 14:34:00,72.0,57.0,-100.00,South,180,1.0,4.0,60,0.00,,,-99.99,,2013-06-16 18:34:00,
2013-06-16 14:43:00,72.0,55.0,-100.00,SW,235,1.0,4.0,54,0.00,,,-99.99,,2013-06-16 18:43:00,
2013-06-16 14:52:00,72.0,56.0,-100.00,SSE,150,2.0,5.0,55,0.00,,,-99.99,,2013-06-16 18:52:00,
2013-06-16 15:01:00,72.0,56.0,-100.00,SSW,200,1.0,9.0,57,0.00,,,-99.99,,2013-06-16 19:01:00,
2013-06-16 15:12:00,73.0,57.0,-100.00,SSW,195,1.0,4.0,57,0.00,,,-99.99,,2013-06-16 19:12:00,
2013-06-16 15:22:00,73.0,57.0,-100.00,SSW,205,2.0,9.0,55,0.00,,,-99.99,,2013-06-16 19:22:00,
2013-06-16 15:34:00,73.0,57.0,-100.00,West,280,1.0,7.0,56,0.00,,,-99.99,,2013-06-16 19:34:00,
2013-06-16 15:43:00,73.0,57.0,-100.00,SW,230,2.0,10.0,57,0.00,,,-99.99,,2013-06-16 19:43:00,
2013-06-16 15:53:00,74.0,60.0,-100.00,WNW,285,1.0,7.0,61,0.00,,,-99.99,,2013-06-16 19:53:00,
2013-06-16 16:02:00,72.0,59.0,-100.00,SE,145,1.0,4.0,63,0.00,,,-99.99,,2013-06-16 20:02:00,
2013-06-16 16:12:00,72.0,59.0,-100.00,SE,145,1.0,7.0,62,0.00,,,-99.99,,2013-06-16 20:12:00,
2013-06-16 16:22:00,72.0,59.0,-100.00,SSW,210,1.0,6.0,63,0.00,,,-99.99,,2013-06-16 20:22:00,
2013-06-16 16:33:00,72.0,58.0,-100.00,South,190,1.0,6.0,61,0.00,,,-99.99,,2013-06-16 20:33:00,
2013-06-16 16:42:00,73.0,58.0,-100.00,SSE,150,2.0,6.0,61,0.00,,,-99.99,,2013-06-16 20:42:00,
2013-06-16 16:53:00,73.0,60.0,-100.00,WSW,250,1.0,4.0,64,0.00,,,-99.99,,2013-06-16 20:53:00,
2013-06-16 17:02:00,72.0,59.0,-100.00,SE,125,1.0,4.0,63,0.00,,,-99.99,,2013-06-16 21:02:00,
2013-06-16 17:11:00,72.0,59.0,-100.00,SW,215,1.0,10.0,62,0.00,,,-99.99,,2013-06-16 21:11:00,
2013-06-16 17:22:00,71.0,59.0,-100.00,SW,230,2.0,3.0,64,0.00,,,-99.99,,2013-06-16 21:22:00,
2013-06-16 17:33:00,71.0,58.0,-100.00,SSE,150,1.0,5.0,64,0.00,,,-99.99,,2013-06-16 21:33:00,
2013-06-16 17:42:00,71.0,59.0,-100.00,WSW,245,1.0,4.0,65,0.00,,,-99.99,,2013-06-16 21:42:00,
2013-06-16 17:53:00,70.0,58.0,-100.00,SW,215,1.0,5.0,65,0.00,,,-99.99,,2013-06-16 21:53:00,
2013-06-16 18:01:00,71.0,56.0,-100.00,SW,235,2.0,7.0,60,0.00,,,-99.99,,2013-06-16 22:01:00,
2013-06-16 18:12:00,71.0,57.0,-100.00,SW,235,1.0,4.0,61,0.00,,,-99.99,,2013-06-16 22:12:00,
2013-06-16 18:22:00,71.0,56.0,-100.00,SW,220,1.0,4.0,60,0.00,,,-99.99,,2013-06-16 22:22:00,
2013-06-16 18:32:00,71.0,56.0,-100.00,SW,225,1.0,4.0,61,0.00,,,-99.99,,2013-06-16 22:32:00,
2013-06-16 18:42:00,71.0,57.0,-100.00,SW,235,1.0,4.0,62,0.00,,,-99.99,,2013-06-16 22:42:00,
2013-06-16 18:52:00,70.0,57.0,-100.00,WSW,250,1.0,2.0,62,0.00,,,-99.99,,2013-06-16 22:52:00,
2013-06-16 19:02:00,71.0,58.0,-100.00,SW,220,1.0,3.0,64,0.00,,,-99.99,,2013-06-16 23:02:00,
2013-06-16 19:11:00,71.0,59.0,-100.00,WSW,245,1.0,2.0,67,0.00,,,-99.99,,2013-06-16 23:11:00,
2013-06-16 19:22:00,71.0,58.0,-100.00,SW,230,1.0,3.0,63,0.00,,,-99.99,,2013-06-16 23:22:00,
2013-06-16 19:32:00,71.0,58.0,-100.00,WSW,240,2.0,4.0,63,0.00,,,-99.99,,2013-06-16 23:32:00,
2013-06-16 19:42:00,71.0,58.0,-100.00,WSW,250,1.0,3.0,64,0.00,,,-99.99,,2013-06-16 23:42:00,
2013-06-16 19:52:00,70.0,58.0,-100.00,SW,220,1.0,4.0,63,0.00,,,-99.99,,2013-06-16 23:52:00,
2013-06-16 20:02:00,70.0,59.0,-100.00,SSW,195,1.0,3.0,68,0.00,,,-99.99,,2013-06-17 00:02:00,
2013-06-16 20:12:00,70.0,59.0,-100.00,WSW,240,1.0,4.0,67,0.00,,,-99.99,,2013-06-17 00:12:00,
2013-06-16 20:22:00,69.0,59.0,-100.00,South,185,1.0,4.0,69,0.00,,,-99.99,,2013-06-17 00:22:00,
2013-06-16 20:32:00,69.0,59.0,-100.00,South,185,1.0,3.0,69,0.00,,,-99.99,,2013-06-17 00:32:00,
2013-06-16 20:43:00,69.0,58.0,-100.00,SW,220,1.0,4.0,68,0.00,,,-99.99,,2013-06-17 00:43:00,
2013-06-16 20:52:00,69.0,59.0,-100.00,SW,225,1.0,2.0,72,0.00,,,-99.99,,2013-06-17 00:52:00,
2013-06-16 21:02:00,69.0,58.0,-100.00,SSW,205,1.0,2.0,70,0.00,,,-99.99,,2013-06-17 01:02:00,
2013-06-16 21:12:00,68.0,59.0,-100.00,SW,230,1.0,2.0,71,0.00,,,-99.99,,2013-06-17 01:12:00,
2013-06-16 21:22:00,68.0,59.0,-100.00,SSW,205,1.0,2.0,72,0.00,,,-99.99,,2013-06-17 01:22:00,
2013-06-16 21:32:00,67.0,59.0,-100.00,SW,220,1.0,1.0,74,0.00,,,-99.99,,2013-06-17 01:32:00,
2013-06-16 21:43:00,67.0,59.0,-100.00,SSW,205,1.0,2.0,75,0.00,,,-99.99,,2013-06-17 01:43:00,
2013-06-16 21:53:00,68.0,59.0,-100.00,SSW,195,1.0,2.0,74,0.00,,,-99.99,,2013-06-17 01:53:00,
2013-06-16 22:03:00,68.0,60.0,-100.00,WSW,240,1.0,2.0,74,0.00,,,-99.99,,2013-06-17 02:03:00,
2013-06-16 22:12:00,67.0,59.0,-100.00,SSW,210,1.0,2.0,75,0.00,,,-99.99,,2013-06-17 02:12:00,
2013-06-16 22:22:00,67.0,59.0,-100.00,SW,215,1.0,3.0,77,0.00,,,-99.99,,2013-06-17 02:22:00,
2013-06-16 22:34:00,66.0,59.0,-100.00,South,190,1.0,4.0,79,0.00,,,-99.99,,2013-06-17 02:34:00,
2013-06-16 22:43:00,65.0,59.0,-100.00,WSW,240,1.0,4.0,80,0.00,,,-99.99,,2013-06-17 02:43:00,
2013-06-16 22:53:00,66.0,59.0,-100.00,NW,325,1.0,2.0,79,0.00,,,-99.99,,2013-06-17 02:53:00,
2013-06-16 23:02:00,65.0,59.0,-100.00,South,180,0.0,2.0,80,0.00,,,-99.99,,2013-06-17 03:02:00,
2013-06-16 23:12:00,64.0,59.0,-100.00,SW,225,1.0,2.0,83,0.00,,,-99.99,,2013-06-17 03:12:00,
2013-06-16 23:22:00,65.0,59.0,-100.00,West,275,1.0,4.0,83,0.00,,,-99.99,,2013-06-17 03:22:00,
2013-06-16 23:33:00,65.0,59.0,-100.00,SW,215,1.0,4.0,81,0.00,,,-99.99,,2013-06-17 03:33:00,
2013-06-16 23:44:00,65.0,59.0,-100.00,SW,235,1.0,3.0,82,0.00,,,-99.99,,2013-06-17 03:44:00,
2013-06-16 23:53:00,65.0,59.0,-100.00,NW,325,1.0,3.0,81,0.00,,,-99.99,,2013-06-17 03:53:00,